Year,Month,Day,Hour,Minute,Value (Times are PST for temperature in C)
2012,09,13,00,00,9.80
2012,09,13,00,01,9.80
2012,09,13,00,02,9.70
2012,09,13,00,03,9.70
2012,09,13,00,04,9.70
2012,09,13,00,05,9.70
2012,09,13,00,06,9.70
2012,09,13,00,07,9.70
2012,09,13,00,08,9.70
2012,09,13,00,09,9.70
2012,09,13,00,10,9.70
2012,09,13,00,11,9.70
2012,09,13,00,12,9.70
2012,09,13,00,13,9.70
2012,09,13,00,14,9.70
2012,09,13,00,15,9.70
2012,09,13,00,16,9.70
2012,09,13,00,17,9.70
2012,09,13,00,18,9.70
2012,09,13,00,19,9.70
2012,09,13,00,20,9.70
2012,09,13,00,21,9.70
2012,09,13,00,22,9.70
2012,09,13,00,23,9.70
2012,09,13,00,24,9.70
2012,09,13,00,25,9.70
2012,09,13,00,26,9.70
2012,09,13,00,27,9.70
2012,09,13,00,28,9.70
2012,09,13,00,29,9.70
2012,09,13,00,30,9.70
2012,09,13,00,31,9.70
2012,09,13,00,32,9.70
2012,09,13,00,33,9.70
2012,09,13,00,34,9.70
2012,09,13,00,35,9.70
2012,09,13,00,36,9.70
2012,09,13,00,37,9.60
2012,09,13,00,38,9.60
2012,09,13,00,39,9.60
2012,09,13,00,40,9.60
2012,09,13,00,41,9.60
2012,09,13,00,42,9.60
2012,09,13,00,43,9.60
2012,09,13,00,44,9.60
2012,09,13,00,45,9.60
2012,09,13,00,46,9.60
2012,09,13,00,47,9.60
2012,09,13,00,48,9.60
2012,09,13,00,49,9.60
2012,09,13,00,50,9.60
2012,09,13,00,51,9.60
2012,09,13,00,52,9.60
2012,09,13,00,53,9.60
2012,09,13,00,54,9.60
2012,09,13,00,55,9.60
2012,09,13,00,56,9.60
2012,09,13,00,57,9.60
2012,09,13,00,58,9.60
2012,09,13,00,59,9.60
2012,09,13,01,00,9.60
2012,09,13,01,01,9.60
2012,09,13,01,02,9.50
2012,09,13,01,03,9.50
2012,09,13,01,04,9.50
2012,09,13,01,05,9.50
2012,09,13,01,06,9.50
2012,09,13,01,07,9.50
2012,09,13,01,08,9.50
2012,09,13,01,09,9.40
2012,09,13,01,10,9.40
2012,09,13,01,11,9.40
2012,09,13,01,12,9.40
2012,09,13,01,13,9.40
2012,09,13,01,14,9.50
2012,09,13,01,15,9.50
2012,09,13,01,16,9.50
2012,09,13,01,17,9.50
2012,09,13,01,18,9.50
2012,09,13,01,19,9.50
2012,09,13,01,20,9.50
2012,09,13,01,21,9.50
2012,09,13,01,22,9.50
2012,09,13,01,23,9.50
2012,09,13,01,24,9.50
2012,09,13,01,25,9.60
2012,09,13,01,26,9.60
2012,09,13,01,27,9.60
2012,09,13,01,28,9.60
2012,09,13,01,29,9.60
2012,09,13,01,30,9.60
2012,09,13,01,31,9.60
2012,09,13,01,32,9.60
2012,09,13,01,33,9.60
2012,09,13,01,34,9.60
2012,09,13,01,35,9.60
2012,09,13,01,36,9.60
2012,09,13,01,37,9.60
2012,09,13,01,38,9.60
2012,09,13,01,39,9.60
2012,09,13,01,40,9.60
2012,09,13,01,41,9.60
2012,09,13,01,42,9.60
2012,09,13,01,43,9.60
2012,09,13,01,44,9.60
2012,09,13,01,45,9.60
2012,09,13,01,49,9.70
2012,09,13,01,50,9.70
2012,09,13,01,51,9.70
2012,09,13,01,52,9.70
2012,09,13,01,53,9.70
2012,09,13,01,54,9.70
2012,09,13,01,55,9.70
2012,09,13,01,56,9.70
2012,09,13,01,57,9.80
2012,09,13,01,58,9.80
2012,09,13,01,59,9.80
2012,09,13,02,00,9.80
2012,09,13,02,01,9.80
2012,09,13,02,02,9.80
2012,09,13,02,03,9.80
2012,09,13,02,04,9.80
2012,09,13,02,05,9.70
2012,09,13,02,06,9.80
2012,09,13,02,07,9.80
2012,09,13,02,08,9.80
2012,09,13,02,09,9.80
2012,09,13,02,10,9.80
2012,09,13,02,11,9.80
2012,09,13,02,12,9.80
2012,09,13,02,13,9.80
2012,09,13,02,14,9.80
2012,09,13,02,15,9.80
2012,09,13,02,16,9.80
2012,09,13,02,17,9.80
2012,09,13,02,18,9.80
2012,09,13,02,19,9.80
2012,09,13,02,20,9.80
2012,09,13,02,21,9.80
2012,09,13,02,22,9.80
2012,09,13,02,23,9.80
2012,09,13,02,24,9.80
2012,09,13,02,25,9.80
2012,09,13,02,26,9.80
2012,09,13,02,27,9.80
2012,09,13,02,28,9.80
2012,09,13,02,29,9.80
2012,09,13,02,30,9.80
2012,09,13,02,31,9.80
2012,09,13,02,32,9.80
2012,09,13,02,33,9.80
2012,09,13,02,34,9.80
2012,09,13,02,35,9.80
2012,09,13,02,36,9.80
2012,09,13,02,37,9.80
2012,09,13,02,38,9.80
2012,09,13,02,39,9.80
2012,09,13,02,40,9.80
2012,09,13,02,41,9.80
2012,09,13,02,42,9.80
2012,09,13,02,43,9.80
2012,09,13,02,44,9.80
2012,09,13,02,45,9.80
2012,09,13,02,46,9.80
2012,09,13,02,47,9.80
2012,09,13,02,48,9.80
2012,09,13,02,49,9.80
2012,09,13,02,50,9.80
2012,09,13,02,51,9.80
2012,09,13,02,52,9.80
2012,09,13,02,53,9.80
2012,09,13,02,54,9.80
2012,09,13,02,55,9.90
2012,09,13,02,56,9.90
2012,09,13,02,57,9.90
2012,09,13,02,58,9.90
2012,09,13,02,59,9.90
2012,09,13,03,00,9.90
2012,09,13,03,01,9.90
2012,09,13,03,02,9.90
2012,09,13,03,03,9.90
2012,09,13,03,04,9.90
2012,09,13,03,05,9.90
2012,09,13,03,06,9.90
2012,09,13,03,07,9.90
2012,09,13,03,08,9.90
2012,09,13,03,09,9.90
2012,09,13,03,10,9.90
2012,09,13,03,11,9.90
2012,09,13,03,12,9.90
2012,09,13,03,13,9.90
2012,09,13,03,14,9.90
2012,09,13,03,15,9.90
2012,09,13,03,16,9.90
2012,09,13,03,17,9.90
2012,09,13,03,18,9.90
2012,09,13,03,19,9.90
2012,09,13,03,20,9.90
2012,09,13,03,21,9.90
2012,09,13,03,22,9.90
2012,09,13,03,23,9.90
2012,09,13,03,24,9.90
2012,09,13,03,25,9.80
2012,09,13,03,26,9.80
2012,09,13,03,27,9.80
2012,09,13,03,28,9.80
2012,09,13,03,29,9.80
2012,09,13,03,30,9.80
2012,09,13,03,31,9.80
2012,09,13,03,32,9.80
2012,09,13,03,33,9.80
2012,09,13,03,34,9.80
2012,09,13,03,35,9.80
2012,09,13,03,36,9.80
2012,09,13,03,37,9.80
2012,09,13,03,38,9.80
2012,09,13,03,39,9.80
2012,09,13,03,40,9.80
2012,09,13,03,41,9.80
2012,09,13,03,42,9.80
2012,09,13,03,43,9.80
2012,09,13,03,44,9.80
2012,09,13,03,45,9.80
2012,09,13,03,46,9.80
2012,09,13,03,47,9.80
2012,09,13,03,48,9.70
2012,09,13,03,49,9.70
2012,09,13,03,50,9.70
2012,09,13,03,51,9.70
2012,09,13,03,52,9.70
2012,09,13,03,53,9.70
2012,09,13,03,54,9.70
2012,09,13,03,55,9.70
2012,09,13,03,56,9.70
2012,09,13,03,57,9.70
2012,09,13,03,58,9.70
2012,09,13,03,59,9.70
2012,09,13,04,00,9.70
2012,09,13,04,01,9.70
2012,09,13,04,02,9.70
2012,09,13,04,03,9.70
2012,09,13,04,04,9.70
2012,09,13,04,05,9.70
2012,09,13,04,06,9.70
2012,09,13,04,07,9.70
2012,09,13,04,08,9.70
2012,09,13,04,09,9.70
2012,09,13,04,10,9.70
2012,09,13,04,11,9.70
2012,09,13,04,12,9.70
2012,09,13,04,13,9.70
2012,09,13,04,14,9.70
2012,09,13,04,15,9.70
2012,09,13,04,16,9.70
2012,09,13,04,17,9.70
2012,09,13,04,18,9.70
2012,09,13,04,19,9.70
2012,09,13,04,20,9.70
2012,09,13,04,21,9.70
2012,09,13,04,22,9.70
2012,09,13,04,23,9.70
2012,09,13,04,24,9.70
2012,09,13,04,25,9.70
2012,09,13,04,26,9.70
2012,09,13,04,27,9.70
2012,09,13,04,28,9.70
2012,09,13,04,29,9.70
2012,09,13,04,30,9.70
2012,09,13,04,31,9.70
2012,09,13,04,32,9.70
2012,09,13,04,33,9.70
2012,09,13,04,34,9.70
2012,09,13,04,35,9.70
2012,09,13,04,36,9.70
2012,09,13,04,37,9.70
2012,09,13,04,38,9.70
2012,09,13,04,39,9.70
2012,09,13,04,40,9.70
2012,09,13,04,41,9.70
2012,09,13,04,42,9.70
2012,09,13,04,43,9.70
2012,09,13,04,44,9.70
2012,09,13,04,45,9.70
2012,09,13,04,46,9.70
2012,09,13,04,47,9.70
2012,09,13,04,48,9.70
2012,09,13,04,49,9.70
2012,09,13,04,50,9.70
2012,09,13,04,51,9.70
2012,09,13,04,52,9.60
2012,09,13,04,53,9.70
2012,09,13,04,54,9.60
2012,09,13,04,55,9.60
2012,09,13,04,56,9.60
2012,09,13,04,57,9.60
2012,09,13,04,58,9.60
2012,09,13,04,59,9.60
2012,09,13,05,00,9.60
2012,09,13,05,01,9.60
2012,09,13,05,02,9.60
2012,09,13,05,03,9.60
2012,09,13,05,04,9.60
2012,09,13,05,05,9.60
2012,09,13,05,06,9.60
2012,09,13,05,07,9.60
2012,09,13,05,08,9.60
2012,09,13,05,09,9.60
2012,09,13,05,10,9.60
2012,09,13,05,11,9.60
2012,09,13,05,12,9.60
2012,09,13,05,13,9.60
2012,09,13,05,14,9.60
2012,09,13,05,15,9.60
2012,09,13,05,16,9.60
2012,09,13,05,17,9.60
2012,09,13,05,18,9.60
2012,09,13,05,19,9.60
2012,09,13,05,20,9.60
2012,09,13,05,21,9.60
2012,09,13,05,22,9.50
2012,09,13,05,23,9.50
2012,09,13,05,24,9.50
2012,09,13,05,25,9.50
2012,09,13,05,26,9.50
2012,09,13,05,27,9.50
2012,09,13,05,28,9.50
2012,09,13,05,29,9.50
2012,09,13,05,30,9.50
2012,09,13,05,31,9.50
2012,09,13,05,32,9.50
2012,09,13,05,33,9.50
2012,09,13,05,34,9.50
2012,09,13,05,35,9.50
2012,09,13,05,36,9.50
2012,09,13,05,37,9.50
2012,09,13,05,38,9.50
2012,09,13,05,39,9.50
2012,09,13,05,40,9.50
2012,09,13,05,41,9.50
2012,09,13,05,42,9.50
2012,09,13,05,43,9.50
2012,09,13,05,44,9.50
2012,09,13,05,45,9.50
2012,09,13,05,46,9.50
2012,09,13,05,47,9.50
2012,09,13,05,48,9.50
2012,09,13,05,49,9.50
2012,09,13,05,50,9.50
2012,09,13,05,51,9.50
2012,09,13,05,52,9.50
2012,09,13,05,53,9.50
2012,09,13,05,54,9.50
2012,09,13,05,55,9.50
2012,09,13,05,56,9.50
2012,09,13,05,57,9.50
2012,09,13,05,58,9.50
2012,09,13,05,59,9.50
2012,09,13,06,00,9.50
2012,09,13,06,01,9.50
2012,09,13,06,02,9.50
2012,09,13,06,03,9.50
2012,09,13,06,04,9.50
2012,09,13,06,05,9.50
2012,09,13,06,06,9.50
2012,09,13,06,07,9.50
2012,09,13,06,08,9.50
2012,09,13,06,09,9.50
2012,09,13,06,10,9.50
2012,09,13,06,11,9.40
2012,09,13,06,12,9.40
2012,09,13,06,13,9.40
2012,09,13,06,14,9.40
2012,09,13,06,15,9.40
2012,09,13,06,16,9.40
2012,09,13,06,17,9.40
2012,09,13,06,18,9.40
2012,09,13,06,19,9.40
2012,09,13,06,20,9.40
2012,09,13,06,21,9.40
2012,09,13,06,22,9.40
2012,09,13,06,23,9.40
2012,09,13,06,24,9.40
2012,09,13,06,25,9.40
2012,09,13,06,26,9.40
2012,09,13,06,27,9.40
2012,09,13,06,28,9.40
2012,09,13,06,29,9.40
2012,09,13,06,30,9.40
2012,09,13,06,31,9.40
2012,09,13,06,32,9.40
2012,09,13,06,33,9.40
2012,09,13,06,34,9.40
2012,09,13,06,35,9.40
2012,09,13,06,36,9.40
2012,09,13,06,37,9.40
2012,09,13,06,38,9.40
2012,09,13,06,39,9.40
2012,09,13,06,40,9.40
2012,09,13,06,41,9.40
2012,09,13,06,42,9.40
2012,09,13,06,43,9.40
2012,09,13,06,44,9.40
2012,09,13,06,45,9.40
2012,09,13,06,46,9.40
2012,09,13,06,47,9.40
2012,09,13,06,48,9.40
2012,09,13,06,49,9.40
2012,09,13,06,50,9.40
2012,09,13,06,51,9.40
2012,09,13,06,52,9.40
2012,09,13,06,53,9.40
2012,09,13,06,54,9.40
2012,09,13,06,55,9.40
2012,09,13,06,56,9.40
2012,09,13,06,57,9.40
2012,09,13,06,58,9.40
2012,09,13,06,59,9.40
2012,09,13,07,00,9.40
2012,09,13,07,01,9.40
2012,09,13,07,02,9.30
2012,09,13,07,03,9.30
2012,09,13,07,04,9.30
2012,09,13,07,05,9.30
2012,09,13,07,06,9.30
2012,09,13,07,07,9.30
2012,09,13,07,08,9.30
2012,09,13,07,09,9.30
2012,09,13,07,10,9.40
2012,09,13,07,11,9.40
2012,09,13,07,12,9.40
2012,09,13,07,13,9.40
2012,09,13,07,14,9.30
2012,09,13,07,15,9.40
2012,09,13,07,16,9.30
2012,09,13,07,17,9.30
2012,09,13,07,18,9.40
2012,09,13,07,19,9.30
2012,09,13,07,20,9.30
2012,09,13,07,21,9.30
2012,09,13,07,22,9.30
2012,09,13,07,23,9.30
2012,09,13,07,24,9.30
2012,09,13,07,25,9.30
2012,09,13,07,26,9.30
2012,09,13,07,27,9.30
2012,09,13,07,28,9.30
2012,09,13,07,29,9.30
2012,09,13,07,30,9.40
2012,09,13,07,31,9.40
2012,09,13,07,32,9.40
2012,09,13,07,33,9.40
2012,09,13,07,34,9.40
2012,09,13,07,35,9.40
2012,09,13,07,36,9.40
2012,09,13,07,37,9.40
2012,09,13,07,38,9.40
2012,09,13,07,39,9.40
2012,09,13,07,40,9.40
2012,09,13,07,41,9.40
2012,09,13,07,42,9.40
2012,09,13,07,43,9.40
2012,09,13,07,44,9.40
2012,09,13,07,45,9.40
2012,09,13,07,46,9.40
2012,09,13,07,47,9.40
2012,09,13,07,48,9.40
2012,09,13,07,49,9.40
2012,09,13,07,50,9.50
2012,09,13,07,51,9.50
2012,09,13,07,52,9.50
2012,09,13,07,53,9.50
2012,09,13,07,54,9.50
2012,09,13,07,55,9.50
2012,09,13,07,56,9.50
2012,09,13,07,57,9.50
2012,09,13,07,58,9.50
2012,09,13,07,59,9.50
2012,09,13,08,00,9.50
2012,09,13,08,01,9.50
2012,09,13,08,02,9.50
2012,09,13,08,03,9.50
2012,09,13,08,04,9.60
2012,09,13,08,05,9.60
2012,09,13,08,06,9.60
2012,09,13,08,07,9.60
2012,09,13,08,08,9.60
2012,09,13,08,09,9.60
2012,09,13,08,10,9.60
2012,09,13,08,11,9.60
2012,09,13,08,12,9.60
2012,09,13,08,13,9.60
2012,09,13,08,14,9.60
2012,09,13,08,15,9.60
2012,09,13,08,16,9.60
2012,09,13,08,17,9.60
2012,09,13,08,18,9.60
2012,09,13,08,19,9.60
2012,09,13,08,20,9.60
2012,09,13,08,21,9.60
2012,09,13,08,22,9.60
2012,09,13,08,23,9.70
2012,09,13,08,24,9.70
2012,09,13,08,25,9.70
2012,09,13,08,26,9.70
2012,09,13,08,27,9.70
2012,09,13,08,28,9.70
2012,09,13,08,29,9.70
2012,09,13,08,30,9.70
2012,09,13,08,31,9.80
2012,09,13,08,32,9.80
2012,09,13,08,33,9.80
2012,09,13,08,34,9.80
2012,09,13,08,35,9.80
2012,09,13,08,36,9.90
2012,09,13,08,37,9.90
2012,09,13,08,38,9.90
2012,09,13,08,39,9.90
2012,09,13,08,40,9.90
2012,09,13,08,41,10.00
2012,09,13,08,42,10.10
2012,09,13,08,43,10.10
2012,09,13,08,44,10.20
2012,09,13,08,45,10.20
2012,09,13,08,46,10.20
2012,09,13,08,47,10.30
2012,09,13,08,48,10.30
2012,09,13,08,49,10.40
2012,09,13,08,50,10.40
2012,09,13,08,51,10.50
2012,09,13,08,52,10.50
2012,09,13,08,53,10.60
2012,09,13,08,54,10.60
2012,09,13,08,55,10.60
2012,09,13,08,56,10.70
2012,09,13,08,57,10.70
2012,09,13,08,58,10.80
2012,09,13,08,59,10.80
2012,09,13,09,00,10.90
2012,09,13,09,01,10.90
2012,09,13,09,02,11.00
2012,09,13,09,03,11.00
2012,09,13,09,04,11.10
2012,09,13,09,05,11.10
2012,09,13,09,06,11.10
2012,09,13,09,07,11.10
2012,09,13,09,08,11.10
2012,09,13,09,09,11.20
2012,09,13,09,10,11.20
2012,09,13,09,11,11.20
2012,09,13,09,12,11.20
2012,09,13,09,13,11.20
2012,09,13,09,14,11.20
2012,09,13,09,15,11.30
2012,09,13,09,16,11.30
2012,09,13,09,17,11.40
2012,09,13,09,18,11.40
2012,09,13,09,19,11.50
2012,09,13,09,20,11.60
2012,09,13,09,21,11.60
2012,09,13,09,22,11.60
2012,09,13,09,23,11.70
2012,09,13,09,24,11.70
2012,09,13,09,25,11.80
2012,09,13,09,26,11.80
2012,09,13,09,27,11.80
2012,09,13,09,28,11.80
2012,09,13,09,29,11.90
2012,09,13,09,30,11.90
2012,09,13,09,31,11.90
2012,09,13,09,32,12.00
2012,09,13,09,33,12.00
2012,09,13,09,34,12.10
2012,09,13,09,35,12.10
2012,09,13,09,36,12.10
2012,09,13,09,37,12.10
2012,09,13,09,38,12.20
2012,09,13,09,39,12.20
2012,09,13,09,40,12.20
2012,09,13,09,41,12.30
2012,09,13,09,42,12.30
2012,09,13,09,43,12.40
2012,09,13,09,44,12.50
2012,09,13,09,45,12.50
2012,09,13,09,46,12.60
2012,09,13,09,47,12.60
2012,09,13,09,48,12.70
2012,09,13,09,49,12.70
2012,09,13,09,50,12.80
2012,09,13,09,51,12.90
2012,09,13,09,52,13.00
2012,09,13,09,53,13.10
2012,09,13,09,54,13.20
2012,09,13,09,55,13.40
2012,09,13,09,56,13.50
2012,09,13,09,57,13.60
2012,09,13,09,58,13.70
2012,09,13,09,59,13.80
2012,09,13,10,00,14.00
2012,09,13,10,01,14.10
2012,09,13,10,02,14.20
2012,09,13,10,03,14.30
2012,09,13,10,04,14.40
2012,09,13,10,05,14.50
2012,09,13,10,06,14.60
2012,09,13,10,07,14.70
2012,09,13,10,08,14.80
2012,09,13,10,09,15.00
2012,09,13,10,10,15.00
2012,09,13,10,11,15.00
2012,09,13,10,12,15.00
2012,09,13,10,13,15.00
2012,09,13,10,14,15.20
2012,09,13,10,15,15.30
2012,09,13,10,16,15.40
2012,09,13,10,17,15.50
2012,09,13,10,18,15.60
2012,09,13,10,19,15.60
2012,09,13,10,20,15.70
2012,09,13,10,21,15.80
2012,09,13,10,22,15.80
2012,09,13,10,23,15.80
2012,09,13,10,24,15.80
2012,09,13,10,25,15.90
2012,09,13,10,26,15.90
2012,09,13,10,27,15.90
2012,09,13,10,28,16.00
2012,09,13,10,29,16.10
2012,09,13,10,30,16.10
2012,09,13,10,31,16.10
2012,09,13,10,32,16.10
2012,09,13,10,33,16.20
2012,09,13,10,34,16.20
2012,09,13,10,35,16.20
2012,09,13,10,36,16.30
2012,09,13,10,37,16.30
2012,09,13,10,38,16.40
2012,09,13,10,39,16.40
2012,09,13,10,40,16.50
2012,09,13,10,41,16.60
2012,09,13,10,42,16.60
2012,09,13,10,43,16.70
2012,09,13,10,44,16.70
2012,09,13,10,45,16.70
2012,09,13,10,46,16.80
2012,09,13,10,47,16.90
2012,09,13,10,48,16.90
2012,09,13,10,49,17.00
2012,09,13,10,50,17.10
2012,09,13,10,51,17.20
2012,09,13,10,52,17.20
2012,09,13,10,53,17.20
2012,09,13,10,54,17.20
2012,09,13,10,55,17.20
2012,09,13,10,56,17.20
2012,09,13,10,57,17.10
2012,09,13,10,58,17.10
2012,09,13,10,59,17.20
2012,09,13,11,00,17.20
2012,09,13,11,01,17.30
2012,09,13,11,02,17.30
2012,09,13,11,03,17.30
2012,09,13,11,04,17.30
2012,09,13,11,05,17.40
2012,09,13,11,06,17.40
2012,09,13,11,07,17.40
2012,09,13,11,08,17.40
2012,09,13,11,09,17.40
2012,09,13,11,10,17.40
2012,09,13,11,11,17.40
2012,09,13,11,12,17.40
2012,09,13,11,13,17.40
2012,09,13,11,14,17.40
2012,09,13,11,15,17.30
2012,09,13,11,16,17.30
2012,09,13,11,17,17.30
2012,09,13,11,18,17.30
2012,09,13,11,19,17.30
2012,09,13,11,20,17.20
2012,09,13,11,21,17.20
2012,09,13,11,22,17.10
2012,09,13,11,23,16.90
2012,09,13,11,24,16.80
2012,09,13,11,25,16.70
2012,09,13,11,26,16.60
2012,09,13,11,27,16.50
2012,09,13,11,28,16.50
2012,09,13,11,29,16.40
2012,09,13,11,30,16.40
2012,09,13,11,31,16.30
2012,09,13,11,32,16.30
2012,09,13,11,33,16.30
2012,09,13,11,34,16.30
2012,09,13,11,35,16.30
2012,09,13,11,36,16.40
2012,09,13,11,37,16.40
2012,09,13,11,38,16.40
2012,09,13,11,39,16.40
2012,09,13,11,40,16.50
2012,09,13,11,41,16.50
2012,09,13,11,42,16.50
2012,09,13,11,43,16.60
2012,09,13,11,44,16.60
2012,09,13,11,45,16.60
2012,09,13,11,46,16.70
2012,09,13,11,47,16.70
2012,09,13,11,48,16.70
2012,09,13,11,49,16.80
2012,09,13,11,50,16.80
2012,09,13,11,51,16.80
2012,09,13,11,52,16.90
2012,09,13,11,53,16.90
2012,09,13,11,54,16.90
2012,09,13,11,55,16.90
2012,09,13,11,56,16.90
2012,09,13,11,57,17.00
2012,09,13,11,58,17.00
2012,09,13,11,59,16.90
2012,09,13,12,00,16.90
2012,09,13,12,01,16.90
2012,09,13,12,02,16.90
2012,09,13,12,03,16.90
2012,09,13,12,04,16.90
2012,09,13,12,05,16.90
2012,09,13,12,06,16.90
2012,09,13,12,07,16.90
2012,09,13,12,08,16.90
2012,09,13,12,09,16.90
2012,09,13,12,10,16.90
2012,09,13,12,11,16.90
2012,09,13,12,12,16.80
2012,09,13,12,13,16.80
2012,09,13,12,14,16.70
2012,09,13,12,15,16.60
2012,09,13,12,16,16.60
2012,09,13,12,17,16.50
2012,09,13,12,18,16.40
2012,09,13,12,19,16.40
2012,09,13,12,20,16.40
2012,09,13,12,21,16.40
2012,09,13,12,22,16.30
2012,09,13,12,23,16.30
2012,09,13,12,24,16.30
2012,09,13,12,25,16.30
2012,09,13,12,26,16.30
2012,09,13,12,27,16.40
2012,09,13,12,28,16.40
2012,09,13,12,29,16.50
2012,09,13,12,30,16.50
2012,09,13,12,31,16.60
2012,09,13,12,32,16.50
2012,09,13,12,33,16.50
2012,09,13,12,34,16.60
2012,09,13,12,35,16.60
2012,09,13,12,36,16.60
2012,09,13,12,37,16.70
2012,09,13,12,38,16.80
2012,09,13,12,39,16.80
2012,09,13,12,40,16.90
2012,09,13,12,41,16.90
2012,09,13,12,42,16.90
2012,09,13,12,43,16.90
2012,09,13,12,44,17.00
2012,09,13,12,45,17.00
2012,09,13,12,46,16.90
2012,09,13,12,47,16.90
2012,09,13,12,48,16.90
2012,09,13,12,49,16.80
2012,09,13,12,50,16.80
2012,09,13,12,51,16.80
2012,09,13,12,52,16.90
2012,09,13,12,53,16.80
2012,09,13,12,54,16.80
2012,09,13,12,55,16.90
2012,09,13,12,56,17.00
2012,09,13,12,57,17.10
2012,09,13,12,58,17.20
2012,09,13,12,59,17.30
2012,09,13,13,00,17.40
2012,09,13,13,01,17.40
2012,09,13,13,02,17.50
2012,09,13,13,03,17.60
2012,09,13,13,04,17.70
2012,09,13,13,05,17.80
2012,09,13,13,06,17.90
2012,09,13,13,07,18.00
2012,09,13,13,08,18.10
2012,09,13,13,09,18.10
2012,09,13,13,10,18.20
2012,09,13,13,11,18.30
2012,09,13,13,12,18.30
2012,09,13,13,13,18.40
2012,09,13,13,14,18.50
2012,09,13,13,15,18.50
2012,09,13,13,16,18.60
2012,09,13,13,17,18.60
2012,09,13,13,18,18.60
2012,09,13,13,19,18.70
2012,09,13,13,20,18.70
2012,09,13,13,21,18.70
2012,09,13,13,22,18.70
2012,09,13,13,23,18.70
2012,09,13,13,24,18.70
2012,09,13,13,25,18.80
2012,09,13,13,26,18.80
2012,09,13,13,27,18.80
2012,09,13,13,28,18.80
2012,09,13,13,29,18.80
2012,09,13,13,30,18.80
2012,09,13,13,31,18.80
2012,09,13,13,32,18.80
2012,09,13,13,33,18.90
2012,09,13,13,34,19.00
2012,09,13,13,35,19.10
2012,09,13,13,36,19.20
2012,09,13,13,37,19.30
2012,09,13,13,38,19.30
2012,09,13,13,39,19.30
2012,09,13,13,40,19.30
2012,09,13,13,41,19.30
2012,09,13,13,42,19.20
2012,09,13,13,43,19.10
2012,09,13,13,44,19.10
2012,09,13,13,45,19.10
2012,09,13,13,46,19.10
2012,09,13,13,47,19.00
2012,09,13,13,48,19.00
2012,09,13,13,49,19.00
2012,09,13,13,50,19.10
2012,09,13,13,51,19.10
2012,09,13,13,52,19.10
2012,09,13,13,53,19.20
2012,09,13,13,54,19.30
2012,09,13,13,55,19.40
2012,09,13,13,56,19.50
2012,09,13,13,57,19.60
2012,09,13,13,58,19.60
2012,09,13,13,59,19.60
2012,09,13,14,00,19.70
2012,09,13,14,01,19.70
2012,09,13,14,02,19.70
2012,09,13,14,03,19.80
2012,09,13,14,04,19.80
2012,09,13,14,05,19.80
2012,09,13,14,06,19.90
2012,09,13,14,07,19.90
2012,09,13,14,08,19.90
2012,09,13,14,09,19.90
2012,09,13,14,10,19.90
2012,09,13,14,11,20.00
2012,09,13,14,12,20.00
2012,09,13,14,13,20.00
2012,09,13,14,14,20.10
2012,09,13,14,15,20.10
2012,09,13,14,16,20.10
2012,09,13,14,17,20.20
2012,09,13,14,18,20.20
2012,09,13,14,19,20.30
2012,09,13,14,20,20.30
2012,09,13,14,21,20.40
2012,09,13,14,22,20.40
2012,09,13,14,23,20.40
2012,09,13,14,24,20.40
2012,09,13,14,25,20.50
2012,09,13,14,26,20.60
2012,09,13,14,27,20.60
2012,09,13,14,28,20.70
2012,09,13,14,29,20.70
2012,09,13,14,30,20.70
2012,09,13,14,31,20.70
2012,09,13,14,32,20.70
2012,09,13,14,33,20.70
2012,09,13,14,34,20.70
2012,09,13,14,35,20.60
2012,09,13,14,36,20.60
2012,09,13,14,37,20.60
2012,09,13,14,38,20.60
2012,09,13,14,39,20.60
2012,09,13,14,40,20.60
2012,09,13,14,41,20.60
2012,09,13,14,42,20.70
2012,09,13,14,43,20.70
2012,09,13,14,44,20.70
2012,09,13,14,45,20.70
2012,09,13,14,46,20.80
2012,09,13,14,47,20.80
2012,09,13,14,48,20.80
2012,09,13,14,49,20.80
2012,09,13,14,50,20.80
2012,09,13,14,51,20.80
2012,09,13,14,52,20.80
2012,09,13,14,53,20.90
2012,09,13,14,54,20.90
2012,09,13,14,55,20.90
2012,09,13,14,56,20.90
2012,09,13,14,57,20.90
2012,09,13,14,58,20.80
2012,09,13,14,59,20.80
2012,09,13,15,00,20.80
2012,09,13,15,01,20.80
2012,09,13,15,02,20.80
2012,09,13,15,03,20.80
2012,09,13,15,04,20.80
2012,09,13,15,05,20.80
2012,09,13,15,06,20.80
2012,09,13,15,07,20.80
2012,09,13,15,08,20.80
2012,09,13,15,09,20.90
2012,09,13,15,10,21.00
2012,09,13,15,11,21.00
2012,09,13,15,12,21.00
2012,09,13,15,13,21.00
2012,09,13,15,14,20.90
2012,09,13,15,15,20.90
2012,09,13,15,16,20.90
2012,09,13,15,17,21.00
2012,09,13,15,18,21.00
2012,09,13,15,19,21.10
2012,09,13,15,20,21.20
2012,09,13,15,21,21.30
2012,09,13,15,22,21.40
2012,09,13,15,23,21.50
2012,09,13,15,24,21.60
2012,09,13,15,25,21.60
2012,09,13,15,26,21.60
2012,09,13,15,27,21.70
2012,09,13,15,28,21.70
2012,09,13,15,29,21.70
2012,09,13,15,30,21.80
2012,09,13,15,31,21.80
2012,09,13,15,32,21.80
2012,09,13,15,33,21.80
2012,09,13,15,34,21.80
2012,09,13,15,35,21.80
2012,09,13,15,36,21.80
2012,09,13,15,37,21.70
2012,09,13,15,38,21.70
2012,09,13,15,39,21.70
2012,09,13,15,40,21.60
2012,09,13,15,41,21.60
2012,09,13,15,42,21.60
2012,09,13,15,43,21.50
2012,09,13,15,44,21.50
2012,09,13,15,45,21.50
2012,09,13,15,46,21.60
2012,09,13,15,47,21.60
2012,09,13,15,48,21.60
2012,09,13,15,49,21.60
2012,09,13,15,50,21.70
2012,09,13,15,51,21.70
2012,09,13,15,52,21.70
2012,09,13,15,53,21.70
2012,09,13,15,54,21.80
2012,09,13,15,55,21.80
2012,09,13,15,56,21.80
2012,09,13,15,57,21.80
2012,09,13,15,58,21.80
2012,09,13,15,59,21.80
2012,09,13,16,00,21.80
2012,09,13,16,01,21.80
2012,09,13,16,02,21.90
2012,09,13,16,03,21.90
2012,09,13,16,04,21.90
2012,09,13,16,05,21.90
2012,09,13,16,06,21.80
2012,09,13,16,07,21.80
2012,09,13,16,08,21.80
2012,09,13,16,09,21.80
2012,09,13,16,10,21.80
2012,09,13,16,11,21.90
2012,09,13,16,12,22.00
2012,09,13,16,13,22.10
2012,09,13,16,14,22.20
2012,09,13,16,15,22.20
2012,09,13,16,16,22.20
2012,09,13,16,17,22.20
2012,09,13,16,18,22.20
2012,09,13,16,19,22.30
2012,09,13,16,20,22.20
2012,09,13,16,21,22.30
2012,09,13,16,22,22.30
2012,09,13,16,23,22.30
2012,09,13,16,24,22.40
2012,09,13,16,25,22.40
2012,09,13,16,26,22.50
2012,09,13,16,27,22.60
2012,09,13,16,28,22.70
2012,09,13,16,29,22.80
2012,09,13,16,30,22.80
2012,09,13,16,31,22.90
2012,09,13,16,32,22.90
2012,09,13,16,33,23.00
2012,09,13,16,34,23.00
2012,09,13,16,35,23.10
2012,09,13,16,36,23.10
2012,09,13,16,37,23.20
2012,09,13,16,38,23.20
2012,09,13,16,39,23.30
2012,09,13,16,40,23.30
2012,09,13,16,41,23.30
2012,09,13,16,42,23.30
2012,09,13,16,43,23.30
2012,09,13,16,44,23.40
2012,09,13,16,45,23.40
2012,09,13,16,46,23.40
2012,09,13,16,47,23.40
2012,09,13,16,48,23.40
2012,09,13,16,49,23.40
2012,09,13,16,50,23.40
2012,09,13,16,51,23.40
2012,09,13,16,52,23.40
2012,09,13,16,53,23.40
2012,09,13,16,54,23.40
2012,09,13,16,55,23.40
2012,09,13,16,56,23.40
2012,09,13,16,57,23.40
2012,09,13,16,58,23.40
2012,09,13,16,59,23.40
2012,09,13,17,00,23.40
2012,09,13,17,01,23.40
2012,09,13,17,02,23.40
2012,09,13,17,03,23.40
2012,09,13,17,04,23.40
2012,09,13,17,05,23.40
2012,09,13,17,06,23.40
2012,09,13,17,07,23.40
2012,09,13,17,08,23.40
2012,09,13,17,09,23.40
2012,09,13,17,10,23.40
2012,09,13,17,11,23.30
2012,09,13,17,12,23.30
2012,09,13,17,13,23.30
2012,09,13,17,14,23.30
2012,09,13,17,15,23.20
2012,09,13,17,16,23.20
2012,09,13,17,17,23.20
2012,09,13,17,18,23.10
2012,09,13,17,19,23.10
2012,09,13,17,20,23.10
2012,09,13,17,21,23.10
2012,09,13,17,22,23.00
2012,09,13,17,23,23.00
2012,09,13,17,24,23.00
2012,09,13,17,25,22.90
2012,09,13,17,26,22.90
2012,09,13,17,27,22.90
2012,09,13,17,28,22.80
2012,09,13,17,29,22.80
2012,09,13,17,30,22.80
2012,09,13,17,31,22.80
2012,09,13,17,32,22.70
2012,09,13,17,33,22.70
2012,09,13,17,34,22.70
2012,09,13,17,35,22.70
2012,09,13,17,36,22.70
2012,09,13,17,37,22.70
2012,09,13,17,38,22.80
2012,09,13,17,39,22.80
2012,09,13,17,40,22.80
2012,09,13,17,41,22.90
2012,09,13,17,42,22.90
2012,09,13,17,43,23.00
2012,09,13,17,44,23.00